Wind_Speed
21 20 19 18 17 17 17 17 16 13 11 10 10 10 10 9 9 9 9 9 9 9 8 8 7 8 7 8 7 7 8 7 8 8 8 9 9 9 9 9 9 9 9 10
23 22 21 21 19 18 18 18 17 15 12 11 12 12 11 10 10 10 10 10 10 10 9 9 8 8 8 8 8 8 8 8 9 9 9 9 9 10 10 10 10 10 10 10
24 23 23 22 20 19 19 18 18 16 14 14 13 13 12 12 11 11 10 11 11 11 10 10 9 9 8 8 8 9 9 9 9 10 10 10 10 10 11 11 11 11 12 12
26 25 25 21 20 20 20 19 19 17 16 15 15 14 14 13 12 12 11 11 11 11 10 10 9 9 9 9 9 9 9 10 10 10 11 11 11 12 12 12 12 13 13 13
28 26 25 23 21 21 21 21 20 19 18 17 17 15 14 14 14 14 13 12 11 11 11 10 10 10 10 10 10 11 10 11 11 12 12 12 12 13 13 14 14 14 14 14
29 28 25 23 23 22 22 20 20 20 20 19 18 17 15 15 16 15 14 13 12 12 12 11 11 11 11 11 11 12 12 12 12 13 13 14 13 14 14 14 15 15 16 16
30 29 26 25 24 24 24 21 21 21 21 20 19 18 17 17 17 17 16 15 14 13 13 12 12 12 12 12 13 13 13 13 13 13 13 14 15 15 15 15 15 15 16 17
30 30 27 26 26 25 24 24 23 23 22 22 21 20 19 19 18 18 18 17 16 15 14 14 13 13 13 12 13 13 14 14 15 15 15 15 16 17 17 17 16 16 17 17
31 30 29 28 26 25 26 25 25 24 24 23 22 21 21 20 20 20 19 19 18 17 16 16 15 15 14 14 15 15 15 16 16 17 17 17 17 18 18 18 17 18 18 18
32 31 30 30 28 27 26 26 26 26 25 24 24 23 22 22 21 21 20 20 20 19 18 18 18 17 17 17 16 17 17 18 18 18 19 18 18 19 19 19 19 19 20 20
31 31 30 29 30 29 29 28 27 27 27 26 26 24 23 23 23 22 21 21 21 21 21 20 20 19 18 18 18 19 19 20 19 19 19 19 20 20 21 21 21 21 21 21
29 29 31 30 30 29 29 28 28 27 27 27 28 26 25 25 24 24 23 23 23 22 22 22 21 20 20 20 21 21 21 21 21 21 21 21 21 21 22 22 23 23 23 23
31 31 31 31 32 31 29 28 29 28 28 29 29 28 27 27 26 26 25 25 24 24 23 23 23 23 23 22 22 22 22 22 22 23 23 23 23 23 23 24 24 24 24 24
32 33 32 32 32 31 31 30 29 29 29 29 29 29 28 28 27 27 26 26 26 25 25 25 25 24 24 23 23 23 23 24 24 25 25 25 24 24 24 24 24 25 25 26
32 33 33 33 33 33 32 31 30 29 29 29 30 30 29 28 28 27 27 27 27 27 26 26 26 25 25 25 24 24 24 24 24 25 25 25 25 25 25 25 26 26 27 28
32 32 32 33 33 33 33 32 31 30 30 30 30 29 29 30 28 28 27 27 28 28 28 27 27 27 26 25 25 25 25 25 25 25 25 25 26 26 26 27 27 28 28 29
32 30 31 31 32 32 32 31 32 32 31 30 30 30 30 30 30 28 28 28 29 30 29 29 28 27 27 27 27 27 27 26 26 25 25 26 27 28 28 28 28 29 29 30
31 31 31 32 32 32 32 32 31 32 31 31 31 30 30 30 30 30 29 29 30 31 30 29 29 29 28 28 28 28 28 28 27 27 27 27 28 29 29 29 29 29 30 30
30 30 31 32 31 30 30 31 31 32 32 32 32 32 31 30 30 30 30 31 31 31 31 31 31 31 30 30 29 29 29 29 28 28 28 29 29 29 29 29 30 30 30 31
29 30 30 31 31 30 30 31 31 32 32 32 32 33 32 32 31 32 32 32 32 32 32 32 31 31 31 31 30 30 30 30 29 29 29 29 29 29 29 30 30 30 31 31
30 30 31 31 31 30 30 31 32 32 32 33 33 33 34 34 33 33 33 32 32 32 32 31 32 32 32 31 31 31 31 30 30 30 30 30 30 30 30 31 31 31 31 32
29 30 31 31 31 30 30 31 32 33 33 33 33 34 35 34 34 34 33 33 32 32 32 31 32 32 32 32 32 32 32 32 32 32 31 31 31 31 31 31 32 32 33 33
29 30 31 31 30 31 32 32 33 33 33 33 33 34 35 35 35 34 33 33 32 33 33 32 32 33 33 33 33 33 32 33 33 32 32 31 31 32 32 32 32 33 33 34
28 28 29 30 31 31 32 32 32 33 34 34 35 35 35 35 35 34 34 34 34 34 33 33 33 33 33 33 33 33 33 33 33 32 32 31 32 32 32 32 33 33 33 34
29 30 30 30 31 31 32 33 33 34 34 35 35 35 35 35 35 34 35 35 34 34 34 33 33 33 33 33 33 33 33 33 33 33 32 32 33 33 33 33 34 33 33 33
28 29 29 29 30 31 32 33 33 34 34 34 34 34 34 35 35 35 35 34 34 34 34 34 33 33 33 33 33 33 32 32 32 33 33 33 33 33 32 32 32 32 32 32
28 28 28 29 29 29 29 30 31 33 33 33 34 34 34 34 34 34 34 34 34 34 34 33 33 33 33 33 33 33 33 33 33 33 33 33 33 32 32 32 32 32 32 32
Wind_Direction
254 256 256 257 258 260 264 268 271 272 277 280 278 275 273 273 275 276 280 280 277 276 278 280 275 268 264 260 261 261 259 260 258 256 256 258 263 265 264 266 271 273 276 282
252 253 255 256 257 261 263 266 267 266 269 274 274 273 273 273 272 272 275 276 276 272 271 276 273 269 266 258 257 259 259 260 260 260 259 259 263 268 269 268 271 276 280 287
250 252 254 254 258 260 261 263 264 263 265 267 269 270 270 271 270 270 273 272 273 275 273 270 267 266 266 264 262 264 261 261 263 263 261 261 264 269 274 274 276 279 281 284
250 252 253 256 256 257 257 258 260 260 260 261 264 266 265 264 265 267 271 272 273 274 273 269 265 264 266 265 264 263 261 262 263 265 265 263 265 270 273 275 277 279 281 282
249 251 254 254 256 257 256 255 257 257 258 262 263 264 263 261 261 263 265 269 272 273 270 267 264 260 260 261 262 262 264 265 266 266 268 267 268 271 274 275 277 280 281 282
249 251 253 254 254 254 255 253 253 255 256 258 261 262 263 262 261 262 263 266 268 269 268 268 265 260 258 258 260 261 263 265 266 268 271 270 268 271 274 277 279 279 279 281
249 251 252 253 253 253 253 253 252 253 254 255 258 261 261 260 259 260 261 262 265 266 267 269 267 261 260 260 260 260 261 264 265 268 272 272 271 272 275 278 279 280 280 280
250 251 251 253 254 253 251 251 251 253 256 257 257 260 259 258 257 258 259 259 261 263 264 265 265 262 260 260 263 261 262 264 265 267 269 272 275 273 274 278 278 279 281 282
250 251 250 251 253 253 251 251 250 251 254 256 257 258 258 257 257 257 257 257 259 261 263 262 263 263 261 261 263 263 266 268 269 268 268 271 275 275 276 277 279 281 282 283
251 250 249 249 249 251 252 251 250 251 252 254 255 256 256 255 255 256 257 257 257 259 262 263 262 263 262 263 265 266 268 269 271 271 271 271 274 276 277 278 279 280 281 282
249 249 248 247 247 248 249 251 252 252 253 253 253 254 254 254 254 256 257 258 258 258 260 262 262 262 263 264 267 267 267 269 271 273 273 272 273 274 276 277 278 280 282 282
249 249 247 246 247 248 248 248 250 252 251 253 252 251 253 252 252 253 256 259 258 257 257 259 260 262 263 265 267 267 270 271 270 271 271 271 272 273 274 276 277 279 280 282
249 249 249 247 247 248 247 248 248 250 250 250 250 252 253 252 252 252 254 256 257 257 257 259 260 262 264 266 268 270 272 272 272 271 270 270 270 271 274 276 277 278 280 281
248 248 248 248 247 247 247 248 248 248 249 250 250 251 252 252 253 253 254 256 257 257 257 258 260 262 263 265 268 271 271 272 272 271 270 270 269 270 273 275 276 278 280 281
246 248 248 248 248 247 247 247 247 247 248 249 251 252 252 253 253 253 254 256 257 257 258 259 260 262 263 265 268 270 272 273 274 273 270 269 269 271 272 274 276 278 279 280
245 247 247 247 247 246 245 246 245 246 247 249 251 253 252 252 252 253 253 255 256 258 261 262 263 262 264 266 269 270 272 273 274 273 272 270 270 272 273 275 277 279 280 281
245 245 246 246 245 243 245 245 244 244 245 247 249 251 253 253 254 254 254 255 258 260 262 263 263 263 264 266 268 270 270 272 273 272 273 273 272 272 274 276 278 280 281 282
247 245 245 246 245 245 246 245 244 245 246 247 248 250 252 253 255 256 257 258 258 259 260 262 262 263 264 266 268 269 269 271 271 272 273 273 273 273 274 276 278 279 281 283
247 246 246 245 244 246 248 248 247 246 247 248 249 250 251 252 253 256 258 259 260 260 260 261 261 262 264 266 268 269 269 270 271 271 272 273 273 273 274 275 277 279 281 283
249 248 246 246 247 248 248 247 248 248 248 249 250 250 251 252 253 255 258 259 260 263 263 261 261 262 263 266 267 267 267 269 270 271 273 276 275 274 274 275 277 279 281 283
248 247 247 248 248 248 248 249 250 249 249 249 250 249 251 253 253 255 257 259 261 262 261 262 262 263 264 265 266 266 267 268 270 272 274 276 276 275 275 276 277 279 280 282
247 247 247 248 249 249 250 250 250 250 250 250 251 251 251 252 253 255 257 259 261 260 260 261 262 263 264 265 266 267 266 268 270 272 274 275 276 277 277 277 278 279 280 282
247 247 248 249 250 250 250 251 251 250 251 251 252 253 252 252 253 254 256 257 258 259 259 261 262 263 264 265 266 266 267 269 271 272 273 274 276 278 278 278 279 280 282 283
248 250 251 252 254 253 252 252 252 251 251 252 254 254 253 252 253 254 254 256 258 259 260 261 263 264 265 265 266 267 268 269 270 271 272 274 276 278 279 279 280 281 282 284
252 252 253 255 255 255 255 254 253 253 253 254 255 256 255 254 255 255 256 257 258 259 260 261 262 263 265 266 267 267 268 268 268 269 271 273 275 276 278 279 280 281 283 285
252 252 253 253 255 255 255 254 254 253 254 255 256 257 256 256 256 257 257 258 259 260 260 260 261 263 264 265 266 267 267 267 268 269 270 272 274 275 276 278 279 281 284 286
252 253 254 254 255 256 256 257 257 255 256 257 256 256 256 257 258 258 258 258 259 259 260 260 261 262 264 264 265 266 267 268 270 271 271 272 273 274 275 277 279 282 284 286
Height
5822 5824 5825 5826 5828 5829 5829 5830 5831 5832 5833 5833 5832 5832 5832 5831 5831 5831 5831 5830 5830 5830 5829 5829 5829 5829 5829 5829 5829 5829 5830 5830 5831 5831 5832 5832 5833 5833 5833 5833 5833 5833 5833 5833
5817 5818 5819 5821 5823 5824 5825 5826 5827 5828 5829 5830 5829 5829 5829 5829 5828 5828 5828 5828 5827 5827 5827 5827 5826 5826 5827 5827 5827 5828 5828 5828 5829 5829 5830 5830 5831 5831 5831 5831 5831 5831 5831 5830
5811 5812 5813 5816 5819 5820 5821 5821 5822 5823 5826 5825 5825 5825 5826 5826 5825 5825 5825 5825 5825 5825 5824 5824 5824 5824 5824 5825 5825 5825 5826 5826 5827 5827 5828 5828 5828 5828 5828 5828 5828 5828 5828 5828
5804 5806 5807 5813 5813 5814 5815 5816 5817 5818 5820 5820 5821 5821 5821 5822 5822 5822 5822 5822 5822 5821 5821 5821 5821 5821 5822 5822 5823 5823 5823 5824 5824 5824 5825 5825 5825 5825 5825 5825 5825 5825 5825 5824
5797 5798 5801 5805 5807 5808 5809 5811 5812 5813 5814 5815 5816 5817 5817 5818 5818 5818 5818 5818 5818 5818 5818 5818 5818 5818 5819 5819 5820 5820 5821 5821 5821 5821 5822 5822 5822 5822 5822 5822 5822 5822 5821 5821
5790 5791 5794 5800 5801 5801 5803 5805 5807 5807 5809 5810 5811 5812 5814 5814 5814 5814 5814 5815 5815 5815 5815 5815 5815 5815 5816 5816 5817 5817 5817 5818 5818 5818 5818 5818 5818 5818 5818 5818 5818 5818 5817 5817
5782 5783 5787 5791 5793 5795 5798 5801 5801 5801 5803 5804 5805 5807 5808 5808 5809 5810 5810 5810 5811 5811 5811 5811 5811 5812 5812 5813 5813 5813 5814 5814 5814 5814 5814 5814 5814 5815 5814 5814 5814 5814 5813 5813
5774 5776 5782 5784 5786 5789 5791 5792 5794 5795 5796 5798 5799 5801 5802 5803 5804 5804 5805 5806 5806 5807 5807 5807 5807 5808 5809 5809 5809 5809 5810 5810 5810 5810 5810 5810 5810 5810 5810 5810 5810 5809 5809 5808
5767 5772 5774 5776 5778 5780 5782 5784 5786 5788 5790 5791 5793 5794 5795 5797 5798 5799 5800 5800 5801 5802 5802 5802 5803 5803 5804 5805 5805 5805 5805 5805 5805 5806 5806 5806 5805 5805 5805 5805 5805 5804 5804 5803
5759 5762 5765 5767 5770 5772 5774 5776 5778 5781 5783 5784 5786 5787 5789 5790 5791 5792 5793 5794 5795 5796 5797 5797 5797 5798 5799 5799 5799 5800 5800 5800 5800 5800 5800 5800 5800 5800 5800 5799 5799 5799 5798 5797
5750 5754 5756 5759 5761 5764 5766 5768 5770 5772 5774 5776 5778 5780 5782 5783 5784 5785 5786 5788 5789 5790 5791 5791 5792 5792 5792 5793 5793 5794 5794 5795 5795 5795 5794 5794 5794 5794 5794 5793 5793 5793 5792 5791
5742 5745 5747 5750 5752 5755 5757 5759 5762 5764 5766 5768 5770 5772 5774 5775 5777 5778 5779 5781 5782 5783 5784 5785 5785 5786 5786 5787 5787 5787 5788 5788 5788 5788 5788 5788 5787 5787 5787 5787 5786 5785 5785 5784
5733 5736 5738 5741 5743 5746 5748 5751 5753 5755 5757 5759 5762 5764 5766 5767 5769 5771 5772 5773 5775 5776 5777 5778 5778 5779 5779 5780 5780 5780 5780 5780 5780 5780 5780 5780 5780 5780 5780 5780 5779 5778 5777 5776
5723 5726 5729 5732 5735 5737 5739 5742 5744 5747 5749 5751 5753 5755 5757 5759 5761 5763 5764 5766 5767 5768 5769 5770 5771 5771 5772 5772 5772 5772 5772 5772 5772 5772 5772 5772 5772 5772 5772 5772 5771 5771 5770 5768
5714 5716 5719 5722 5725 5728 5730 5732 5735 5738 5740 5742 5745 5746 5748 5751 5752 5754 5756 5757 5758 5759 5761 5762 5763 5763 5763 5764 5764 5764 5764 5764 5763 5763 5762 5763 5763 5763 5763 5763 5763 5762 5761 5760
5704 5707 5709 5713 5716 5718 5721 5723 5726 5729 5731 5733 5735 5737 5739 5741 5743 5745 5747 5748 5750 5751 5752 5753 5754 5754 5754 5755 5755 5755 5755 5755 5755 5754 5754 5754 5754 5754 5754 5754 5753 5753 5752 5751
5696 5698 5701 5703 5706 5708 5711 5714 5716 5719 5721 5724 5726 5728 5730 5732 5734 5736 5738 5739 5741 5742 5743 5744 5745 5745 5745 5746 5747 5747 5747 5747 5746 5746 5746 5745 5745 5745 5745 5744 5744 5743 5742 5740
5687 5690 5692 5694 5697 5699 5702 5704 5707 5709 5712 5714 5716 5718 5721 5723 5725 5727 5728 5730 5731 5732 5733 5734 5735 5736 5736 5737 5737 5738 5738 5738 5738 5737 5737 5736 5736 5736 5735 5735 5734 5733 5732 5730
5678 5681 5683 5685 5687 5690 5692 5695 5697 5699 5702 5704 5707 5709 5711 5713 5715 5717 5718 5720 5721 5722 5724 5724 5725 5726 5727 5727 5728 5728 5728 5728 5728 5728 5727 5727 5726 5726 5725 5725 5724 5723 5721 5720
5669 5671 5673 5676 5678 5681 5683 5685 5687 5690 5692 5694 5696 5698 5701 5703 5705 5706 5708 5710 5711 5712 5713 5714 5715 5716 5717 5717 5717 5718 5718 5718 5718 5718 5717 5717 5716 5716 5715 5714 5713 5712 5711 5710
5660 5662 5664 5667 5669 5671 5673 5676 5678 5680 5681 5683 5686 5688 5690 5693 5694 5696 5697 5699 5701 5701 5702 5703 5704 5705 5706 5707 5707 5707 5707 5708 5708 5707 5707 5707 5706 5705 5705 5704 5703 5702 5701 5699
5651 5653 5655 5658 5659 5662 5664 5666 5668 5669 5671 5673 5675 5677 5680 5682 5683 5685 5687 5689 5690 5691 5692 5693 5694 5695 5695 5696 5696 5696 5697 5697 5697 5696 5696 5696 5695 5695 5694 5693 5692 5691 5690 5688
5642 5644 5646 5648 5651 5653 5654 5656 5657 5659 5661 5663 5665 5667 5669 5671 5672 5674 5676 5678 5679 5680 5681 5682 5683 5684 5684 5684 5685 5685 5685 5686 5686 5685 5685 5685 5684 5683 5683 5682 5681 5680 5679 5677
5633 5635 5637 5639 5641 5642 5644 5646 5648 5649 5651 5653 5655 5656 5658 5659 5661 5663 5665 5666 5668 5669 5670 5671 5672 5672 5673 5673 5674 5674 5674 5674 5674 5674 5674 5674 5673 5672 5671 5671 5670 5668 5667 5666
5624 5626 5628 5629 5631 5633 5635 5636 5638 5639 5641 5643 5644 5645 5647 5648 5650 5652 5653 5655 5656 5658 5659 5660 5661 5661 5662 5662 5663 5663 5663 5663 5663 5663 5663 5663 5662 5661 5661 5660 5659 5657 5656 5654
5615 5617 5619 5620 5622 5623 5624 5626 5628 5629 5630 5632 5633 5635 5636 5637 5639 5640 5642 5643 5645 5646 5647 5649 5649 5650 5651 5651 5652 5652 5652 5652 5652 5652 5652 5652 5651 5650 5650 5649 5648 5647 5645 5644
5606 5608 5609 5611 5612 5613 5614 5616 5617 5619 5620 5621 5622 5624 5625 5627 5628 5629 5630 5632 5633 5635 5636 5637 5638 5639 5640 5640 5641 5641 5641 5641 5641 5641 5641 5641 5640 5640 5639 5638 5638 5637 5635 5633